Location: Madison
(43.0730°N, 89.3819°W)
Time: 04:37:56
(UTC-05:00)

N. Korean satellite - Visible Passes

Search period start: 19 March 2019 00:00
Search period end: 29 March 2019 00:00
Orbit: 455 x 511 km, 97.2° (Epoch: 18 March)

Date Brightness Start Highest point End Pass type
(mag) Time Alt. Az. Time Alt. Az. Time Alt. Az.
21 Mar 9.7 06:23:56 10° NE 06:26:40 21° E 06:29:24 10° SE visible
22 Mar 10.5 06:00:58 10° E 06:01:40 10° E 06:02:21 10° ESE visible
25 Mar 9.8 06:18:14 10° NE 06:20:46 18° E 06:23:18 10° SE visible
